Location: Barrio de Buenos Aires
(28.4500°N, 16.2667°W)
Time: 04:43:16
(UTC+00:00)

NOSS 3-2 (C) - Pass Details

Date: 24 January 2020
Orbit: 813 x 1399 km, 63.4° (Epoch: 10 February)

Event Time Altitude Azimuth Distance (km) Brightness Sun altitude
Rises 20:09:31 0° 183° (S) 3,318 6.5 -20.2°
Reaches altitude 10° 20:12:06 10° 174° (S) 2,400 5.6 -20.7°
Enters shadow 20:16:15 32° 126° (SE) 1,403 4.0 -21.6°
